Location: Newark
(44.3333°N, 7.6167°E)
Time: 12:02:58
(UTC+00:00)

CUTE 1.7 + AOD 2 - Visible Passes

Search period start: 21 January 2020 00:00
Search period end: 31 January 2020 00:00
Orbit: 595 x 611 km, 97.6° (Epoch: 21 January)

Date Brightness Start Highest point End Pass type
(mag) Time Alt. Az. Time Alt. Az. Time Alt. Az.
21 Jan ? 04:31:10 10° NNE 04:35:18 45° E 04:39:23 10° S visible
21 Jan ? 06:07:49 10° NNW 06:10:45 18° WNW 06:13:41 10° WSW visible
21 Jan ? 17:01:33 10° SW 17:04:43 20° W 17:07:54 10° NW visible
22 Jan ? 04:43:03 10° NNE 04:47:19 62° E 04:51:31 10° S visible
22 Jan ? 06:20:21 10° NNW 06:22:36 14° WNW 06:24:51 10° W visible
22 Jan ? 17:14:18 10° SW 17:16:48 15° W 17:19:20 10° NW visible
23 Jan ? 04:55:01 10° NNE 04:59:19 84° ESE 05:03:34 10° SSW visible
23 Jan ? 17:27:38 10° WSW 17:28:56 11° W 17:30:15 10° WNW visible
24 Jan ? 03:33:53 10° ENE 03:35:00 11° E 03:36:05 10° ESE visible
24 Jan ? 05:07:00 10° N 05:11:18 72° WNW 05:15:30 10° SSW visible
25 Jan ? 03:44:41 10° NE 03:47:07 15° E 03:49:31 10° SE visible
25 Jan ? 05:19:04 10° N 05:23:14 53° WNW 05:27:22 10° SSW visible
26 Jan ? 03:56:05 10° NE 03:59:13 20° E 04:02:19 10° SE visible
26 Jan ? 05:31:11 10° N 05:35:10 39° WNW 05:39:08 10° SW visible
27 Jan ? 04:07:42 10° NE 04:11:18 26° E 04:14:51 10° SSE visible
27 Jan ? 05:43:21 10° N 05:47:05 30° WNW 05:50:47 10° SW visible
28 Jan ? 04:19:26 10° NNE 04:23:22 34° E 04:27:14 10° SSE visible
28 Jan ? 05:55:37 10° NNW 05:58:58 23° WNW 06:02:19 10° WSW visible
29 Jan ? 04:31:15 10° NNE 04:35:24 46° E 04:39:28 10° S visible
29 Jan ? 06:07:58 10° NNW 06:10:50 18° WNW 06:13:41 10° WSW visible
29 Jan ? 17:01:41 10° SW 17:04:49 20° W 17:07:58 10° NW visible
30 Jan ? 04:43:09 10° NNE 04:47:24 64° E 04:51:36 10° S visible
30 Jan ? 17:14:29 10° SW 17:16:56 15° W 17:19:22 10° NW visible
